Showing default

FOX-1, 40967

Orbit data source: Space-Track

FOX-1, 40967 is a payload satellite owned by AMSAT-NA (US) in LEO that was launched on Thu, 08 Oct 2015 UTC via an ATLAS V 401 launch vehicle from the Air Force Western Test Range (AFWTR). Payload-class satellites include a variety of spacecraft equipped with specific instruments for various scientific and technological missions. These include communications satellites like Starlink; space stations such as the ISS; scientific satellites like the Hubble; Earth observation satellites from companies like Planet Labs, Umbra, and HawkEye 360; GPS; miniature CubeSats for education and research; and military/defense satellites.

Loading next visibility...
Identifier
40967, 2015-058D
Orbit
LEO
Last TLE update
13 hours ago
Origin
Manufacturer
AMSAT-NA
Mission
Operational Amateur Technology
Bus & Motor
CUBESAT 1U, Unknown motor
Mass
1 kg wet, 1 kg dry
Launch date (UTC)
2015-10-08 (10 years ago)
Launch vehicle
ATLAS V 401
Launch site
Air Force Western Test Range (AFWTR)
Object type
Payload
Rocket body
Debris
Shape & HBR
Box, 0.1 m
Radar Cross Section
0.015 m², Medium (>0.1 m² and < 1m²)

Expand to show TLE details & history

TLE from 13 hours ago
0 FOX-1
1 40967U 15058D   25178.94633240  .00003418  00000-0  30831-3 0  9993
2 40967  64.7770 297.5883 0158450 189.5322 170.2775 14.88157988 60806
Epoch: 2025-06-27T22:42Z
TLE epoch observation values (Epoch: 2025-06-27T22:42:43.119Z)
Latitude
-0.00004°
Longitude
40.61672°
Altitude
714.795 km
Speed
7.44 km/s
True Right ascension
19h 50m 21s
True Declination
0° 00' 00"
Sunlit
Object was in full shadow at epoch
Visualization orbit readout
Latitude
42.0141°
Longitude
63.89116°
Altitude
695.047 km
Speed
7.467 km/s
Apparent Right ascension
16h 52m 25s
Apparent Declination
14° 18' 31"
Sunlit
Object is in daylight
Visualization observer readout
Local Sidereal Time
23:16:52
Azimuth
284.868° WNW
Elevation
4.555°
Doppler factor
1
Orbital elements
Apogee altitude
712.864 km
Perigee altitude
491.655 km
Semi-major axis
6,980.396 km
Eccentricity
0.01585
Inclination
64.777°
RAAN
297.5883°
Arg. of periapsis
189.5322°
True anomaly
Unknown
Mean anomaly
170.2775°
Eccentric anomaly
Unknown
Mean motion
3.72154 °/min
Orbital period
96.73 mins
BSTAR
0.00030831
Loading maneuver chart data...
Loading SW <> Apogee altitude chart data...
Loading historical data...
Loading historical data...
Loading historical data...
Loading historical data...
Loading historical data...
Loading historical data...
Loading historical data...

FOX-1 Visibility forecast

Observer location: undefined°, undefined°

Span
Click to sort rows by Start time (UTC) header in descending order
Start Az.
Max El. time (UTC)
Max El. Az.
Max El.
End time (UTC)
End Az.
6 mins2025-06-28 18:38:01.534Z327.418° NNW2025-06-28 18:41:01.534Z157.585° S43.843°2025-06-28 18:44:01.534Z150.344° SSE
7 mins2025-06-29 08:43:01.534Z167.218° S2025-06-29 08:46:01.534Z117.174° SE27.886°2025-06-29 08:50:01.534Z54.221° ENE
6 mins2025-06-29 10:23:01.534Z258.821° W2025-06-29 10:26:01.534Z317.717° NNW28.246°2025-06-29 10:29:01.534Z7.144° NNE
|